Temp
14 14 14 13 13 12 12 12 12 12 11 11 11 10 10 10 10 10 10 9 8 8
13 12 12 12 11 11 11 11 11 10 10 10 10 10 9 9 9 9 9 8 7 8
12 12 11 11 10 10 9 9 9 9 8 8 8 8 8 8 8 8 7 7 7 7
11 11 10 10 10 9 9 8 7 7 7 7 7 7 7 7 7 7 7 7 6 6
11 10 10 9 9 8 8 7 7 6 6 6 6 6 6 6 6 6 6 6 5 6
9 9 8 8 8 7 6 6 6 5 5 5 6 6 5 5 5 5 5 4 3 4
9 8 7 7 6 6 5 4 4 4 4 4 4 5 5 4 4 4 3 1 2 2
8 7 6 6 5 4 4 3 3 3 3 4 4 4 4 4 3 2 1 1 1 1
8 7 5 5 4 3 2 2 1 2 3 3 3 3 4 3 2 1 1 1 0 0
6 5 4 4 3 2 2 1 1 0 0 1 2 3 3 3 2 1 1 0 0 1
6 5 4 3 2 1 1 1 0 0 -0 0 1 1 2 2 2 2 2 1 1 1
5 4 3 2 1 1 1 0 -0 -0 -1 -0 0 0 1 2 2 1 1 1 1 0
5 4 3 1 1 0 -0 -1 -1 -1 -1 -1 -0 0 1 1 1 1 1 1 0 0
4 3 2 1 0 -0 -0 -1 -1 -2 -1 -0 0 1 0 0 1 0 0 0 0 0
Height
1517 1519 1519 1520 1520 1520 1520 1518 1518 1518 1518 1518 1518 1518 1517 1516 1516 1515 1514 1514 1514 1514
1513 1513 1514 1515 1515 1515 1515 1514 1514 1513 1513 1513 1513 1512 1512 1511 1510 1510 1509 1508 1508 1509
1508 1509 1510 1511 1510 1509 1509 1509 1509 1508 1508 1508 1507 1507 1506 1505 1505 1505 1505 1504 1504 1503
1505 1506 1506 1506 1506 1505 1504 1504 1504 1504 1503 1503 1502 1502 1501 1500 1501 1500 1499 1501 1499 1501
1501 1501 1501 1500 1501 1500 1500 1498 1499 1499 1499 1498 1498 1497 1496 1497 1496 1496 1495 1494 1496 1497
1497 1497 1496 1495 1495 1495 1495 1494 1492 1494 1494 1494 1493 1493 1492 1493 1492 1492 1491 1489 1490 1492
1493 1492 1492 1490 1491 1491 1489 1489 1488 1488 1489 1489 1489 1488 1488 1487 1488 1487 1487 1486 1487 1488
1488 1488 1487 1485 1486 1485 1484 1484 1483 1484 1485 1484 1484 1484 1484 1483 1482 1483 1484 1484 1485 1486
1483 1482 1482 1483 1483 1481 1481 1479 1480 1480 1480 1480 1480 1482 1480 1480 1478 1481 1482 1483 1484 1484
1480 1479 1478 1479 1478 1478 1478 1478 1478 1477 1477 1477 1478 1478 1479 1477 1478 1479 1480 1480 1483 1482
1475 1475 1474 1474 1474 1475 1475 1475 1476 1475 1475 1475 1476 1476 1477 1478 1479 1479 1479 1482 1482 1482
1471 1471 1470 1470 1471 1472 1472 1472 1473 1472 1472 1473 1475 1476 1477 1478 1477 1478 1479 1481 1480 1481
1468 1467 1467 1468 1468 1468 1469 1469 1469 1469 1469 1472 1473 1475 1476 1476 1476 1477 1478 1479 1479 1479
1463 1463 1464 1464 1464 1464 1464 1465 1466 1468 1469 1471 1472 1474 1475 1475 1476 1476 1476 1478 1477 1477
Wind_Speed
18 18 18 20 20 20 20 22 23 23 23 24 24 24 25 25 25 26 25 23 21 22
17 17 17 18 18 20 21 23 23 23 23 24 24 24 23 22 21 22 21 21 19 19
17 17 17 18 19 20 21 22 22 22 22 22 22 21 21 20 19 18 18 18 15 15
16 16 18 20 21 22 22 23 22 22 21 21 20 19 18 18 18 17 18 17 16 16
16 18 19 20 22 22 22 22 22 22 21 20 19 18 18 18 17 17 17 17 17 16
17 18 18 19 21 21 21 21 20 19 20 20 19 18 17 17 16 15 15 15 14 14
17 17 18 19 20 21 20 19 19 18 19 18 17 16 16 15 15 14 15 13 12 13
17 18 19 19 18 18 18 19 18 18 18 17 17 16 15 13 12 11 8 8 9 11
18 18 19 18 17 15 15 14 15 16 17 16 15 14 12 12 9 7 7 6 7 6
17 17 18 17 16 14 13 14 14 13 12 12 11 10 8 6 7 7 6 6 6 3
18 18 19 17 16 15 14 15 14 12 11 10 9 8 7 6 6 5 4 5 4 3
20 20 20 18 16 16 15 14 13 12 11 10 9 9 8 7 6 5 5 6 5 5
21 20 19 17 16 15 15 14 13 12 12 12 11 10 8 7 7 6 5 5 6 6
20 19 18 17 16 15 14 13 13 13 13 12 11 11 9 7 7 6 6 7 7 8
Wind_Direction
245 253 261 267 269 269 267 267 274 275 274 273 275 276 277 277 277 276 274 273 270 267
247 255 259 263 263 264 267 268 272 273 273 274 275 275 276 277 276 277 277 276 266 255
250 258 263 266 267 268 271 273 273 274 274 275 275 275 275 275 274 276 274 275 266 252
261 268 271 272 273 273 274 274 276 274 274 273 273 273 273 273 274 273 271 269 260 254
263 269 274 277 277 277 275 274 273 274 273 271 270 270 270 272 273 271 267 263 256 248
263 270 272 274 276 277 276 272 271 269 267 266 266 268 269 270 272 269 266 259 252 244
270 275 275 277 280 276 272 268 266 263 264 267 267 266 267 266 268 272 267 250 238 236
272 275 279 283 283 280 270 262 261 263 264 265 267 265 262 261 261 267 255 245 241 243
274 278 278 279 282 286 280 271 267 262 262 262 260 259 254 247 244 229 228 227 227 224
269 271 272 273 277 276 276 276 269 264 262 252 244 246 235 220 210 207 206 202 204 208
269 270 270 269 270 269 269 268 258 252 251 235 228 218 195 186 190 194 194 214 223 238
270 268 267 266 264 267 266 257 249 242 241 226 213 201 198 200 203 206 213 223 232 237
266 264 263 260 259 258 256 247 239 235 228 207 200 202 206 211 213 222 233 250 257 259
264 262 259 255 253 252 247 235 229 228 210 205 211 215 219 222 228 236 252 258 264 267